Terug naar catalogus

COSMOS 1818 COOLANT

ActiefLEO
NORAD 50787·DEBRIS·🇷🇺 Russia

Gelanceerd Feb 1, 1987 vanaf Baikonur Cosmodrome

Loading…

Volgende Passages (komende 24 uur)

TLE

VerouderendSource: Space-Track

Epoch: Sep 9, 2026, 09:27 UTC

1 50787U 87011BC  26252.39379312  .00000482  00000-0  18524-3 0  9995
2 50787  65.0097 299.6287 0021735 280.1373  93.2304 14.39806185557970

Volg COSMOS 1818 COOLANT in realtime met AllMySat

Download on the App Store